QPF
0.01 0.04 0.08 0.11 0.10 0.09 0.07 0.07 0.08 0.06 0.07 0.09 0.09 0.08 0.08 0.08 0.07 0.05 0.05 0.06 0.06 0.06 0.09 0.17 0.18 0.13 0.09 0.06 0.06 0.04 0.03 0.06 0.05 0.05 0.04 0.04 0.04 0.03 0.03 0.03 0.02 0.02 0.04
0.01 0.03 0.07 0.09 0.12 0.08 0.06 0.06 0.07 0.07 0.08 0.08 0.07 0.05 0.06 0.07 0.07 0.05 0.04 0.06 0.08 0.08 0.11 0.15 0.12 0.10 0.09 0.06 0.06 0.05 0.05 0.06 0.04 0.04 0.03 0.04 0.04 0.03 0.03 0.03 0.03 0.04 0.03
0.02 0.03 0.06 0.10 0.10 0.08 0.06 0.08 0.08 0.07 0.06 0.07 0.07 0.07 0.06 0.07 0.06 0.05 0.05 0.04 0.04 0.04 0.05 0.06 0.07 0.07 0.08 0.06 0.07 0.07 0.07 0.07 0.06 0.05 0.03 0.03 0.03 0.03 0.03 0.03 0.05 0.07 0.06
0.02 0.02 0.06 0.10 0.07 0.06 0.06 0.06 0.07 0.07 0.07 0.08 0.07 0.07 0.07 0.06 0.05 0.04 0.04 0.05 0.04 0.03 0.03 0.03 0.05 0.05 0.06 0.05 0.06 0.05 0.05 0.05 0.03 0.03 0.03 0.03 0.03 0.03 0.03 0.03 0.05 0.06 0.08
0.02 0.03 0.07 0.08 0.06 0.05 0.05 0.06 0.06 0.07 0.07 0.08 0.06 0.06 0.05 0.05 0.04 0.04 0.04 0.04 0.04 0.05 0.04 0.04 0.05 0.06 0.05 0.04 0.05 0.06 0.05 0.05 0.04 0.02 0.02 0.03 0.05 0.05 0.04 0.03 0.04 0.06 0.09
0.02 0.03 0.06 0.06 0.05 0.04 0.04 0.05 0.06 0.08 0.08 0.08 0.07 0.05 0.04 0.04 0.04 0.03 0.03 0.03 0.06 0.07 0.06 0.05 0.05 0.06 0.05 0.04 0.05 0.06 0.05 0.04 0.03 0.02 0.02 0.04 0.07 0.07 0.05 0.04 0.05 0.06 0.08
0.02 0.02 0.06 0.05 0.03 0.03 0.03 0.06 0.06 0.07 0.06 0.07 0.06 0.05 0.04 0.05 0.05 0.04 0.04 0.04 0.06 0.07 0.05 0.05 0.05 0.04 0.05 0.04 0.05 0.04 0.04 0.03 0.03 0.02 0.03 0.05 0.06 0.06 0.06 0.04 0.05 0.06 0.08
0.03 0.03 0.04 0.05 0.03 0.03 0.04 0.07 0.07 0.05 0.05 0.06 0.05 0.05 0.04 0.05 0.05 0.05 0.04 0.06 0.06 0.06 0.06 0.06 0.04 0.04 0.04 0.03 0.04 0.04 0.02 0.01 0.02 0.02 0.03 0.05 0.06 0.06 0.06 0.05 0.04 0.04 0.06
0.02 0.02 0.03 0.04 0.03 0.03 0.04 0.06 0.07 0.06 0.04 0.04 0.05 0.05 0.05 0.05 0.06 0.05 0.04 0.04 0.05 0.05 0.06 0.07 0.05 0.04 0.04 0.04 0.05 0.05 0.04 0.03 0.02 0.03 0.03 0.06 0.07 0.08 0.09 0.08 0.07 0.06 0.06
0.02 0.02 0.01 0.01 0.01 0.02 0.03 0.05 0.05 0.05 0.05 0.04 0.04 0.05 0.04 0.04 0.04 0.04 0.04 0.05 0.07 0.06 0.07 0.08 0.07 0.05 0.05 0.05 0.06 0.06 0.05 0.05 0.03 0.03 0.05 0.06 0.07 0.11 0.11 0.10 0.10 0.08 0.06
0.01 0.01 0.02 0.01 0.01 0.02 0.04 0.04 0.05 0.04 0.03 0.02 0.02 0.02 0.02 0.02 0.02 0.03 0.05 0.07 0.08 0.09 0.09 0.08 0.07 0.06 0.04 0.04 0.06 0.05 0.04 0.04 0.04 0.04 0.07 0.08 0.09 0.11 0.10 0.11 0.10 0.08 0.06
0.01 0.01 0.01 0.01 0.01 0.02 0.02 0.02 0.02 0.02 0.02 0.01 0.01 0.01 0.01 0.02 0.02 0.03 0.05 0.09 0.08 0.08 0.08 0.07 0.05 0.04 0.03 0.04 0.04 0.05 0.04 0.04 0.05 0.05 0.07 0.08 0.08 0.09 0.08 0.08 0.08 0.09 0.07
0.01 0.01 0.01 0.01 0.01 0.01 0.01 0.01 0.01 0.01 0.01 0.01 0.00 0.00 0.00 0.01 0.01 0.02 0.05 0.07 0.06 0.07 0.07 0.04 0.03 0.04 0.02 0.03 0.03 0.04 0.05 0.04 0.06 0.05 0.06 0.07 0.09 0.09 0.08 0.08 0.07 0.07 0.08
0.01 0.01 0.01 0.01 0.01 0.00 0.00 0.00 0.00 0.00 0.00 0.00 0.00 0.00 0.01 0.01 0.01 0.02 0.04 0.04 0.04 0.04 0.04 0.03 0.02 0.03 0.02 0.03 0.02 0.03 0.03 0.03 0.03 0.04 0.05 0.07 0.08 0.08 0.09 0.09 0.08 0.09 0.10
0.02 0.02 0.01 0.01 0.01 0.00 0.00 0.00 0.00 0.00 0.00 0.00 0.00 0.00 0.01 0.02 0.03 0.03 0.03 0.03 0.02 0.03 0.04 0.03 0.03 0.03 0.03 0.03 0.02 0.02 0.03 0.03 0.02 0.03 0.03 0.06 0.07 0.07 0.08 0.08 0.08 0.09 0.10
0.04 0.03 0.02 0.02 0.01 0.00 0.00 0.00 0.00 0.00 0.00 0.00 0.00 0.00 0.00 0.01 0.02 0.03 0.04 0.05 0.03 0.03 0.02 0.03 0.05 0.04 0.04 0.03 0.02 0.02 0.03 0.02 0.02 0.02 0.02 0.06 0.07 0.06 0.07 0.08 0.08 0.09 0.09
0.04 0.03 0.03 0.03 0.02 0.01 0.00 0.00 0.00 0.00 0.00 0.00 0.01 0.00 0.00 0.00 0.00 0.01 0.03 0.03 0.02 0.02 0.02 0.02 0.04 0.05 0.02 0.02 0.03 0.02 0.02 0.03 0.02 0.02 0.02 0.07 0.09 0.06 0.06 0.06 0.07 0.07 0.06
0.04 0.04 0.03 0.03 0.03 0.02 0.01 0.01 0.00 0.00 0.00 0.00 0.00 0.00 0.00 0.00 0.00 0.01 0.02 0.01 0.01 0.01 0.01 0.01 0.02 0.03 0.03 0.03 0.03 0.02 0.02 0.03 0.03 0.02 0.03 0.06 0.09 0.07 0.05 0.08 0.07 0.06 0.05
0.04 0.04 0.04 0.04 0.03 0.02 0.02 0.01 0.01 0.01 0.00 0.00 0.00 0.00 0.00 0.00 0.00 0.02 0.02 0.01 0.01 0.01 0.01 0.01 0.01 0.02 0.03 0.03 0.02 0.02 0.03 0.03 0.03 0.03 0.04 0.06 0.07 0.06 0.05 0.09 0.13 0.09 0.05
0.04 0.03 0.03 0.04 0.04 0.04 0.03 0.02 0.01 0.01 0.00 0.00 0.00 0.00 0.00 0.00 0.01 0.03 0.02 0.01 0.02 0.01 0.02 0.02 0.02 0.03 0.03 0.03 0.02 0.02 0.04 0.04 0.04 0.03 0.05 0.07 0.07 0.05 0.05 0.05 0.11 0.09 0.06
0.04 0.03 0.02 0.02 0.02 0.03 0.03 0.02 0.02 0.01 0.00 0.00 0.00 0.00 0.00 0.00 0.01 0.02 0.01 0.01 0.02 0.02 0.03 0.02 0.03 0.03 0.02 0.02 0.03 0.03 0.04 0.06 0.07 0.05 0.05 0.07 0.06 0.06 0.05 0.04 0.05 0.05 0.05
0.03 0.04 0.03 0.02 0.01 0.01 0.02 0.02 0.01 0.01 0.01 0.00 0.00 0.01 0.00 0.00 0.00 0.01 0.01 0.01 0.02 0.03 0.03 0.03 0.04 0.03 0.02 0.03 0.03 0.04 0.04 0.05 0.06 0.05 0.05 0.06 0.07 0.08 0.07 0.05 0.05 0.04 0.03
0.02 0.03 0.03 0.03 0.02 0.01 0.01 0.01 0.01 0.01 0.01 0.00 0.00 0.01 0.00 0.00 0.01 0.01 0.01 0.01 0.01 0.02 0.02 0.02 0.03 0.03 0.03 0.02 0.03 0.05 0.04 0.05 0.07 0.06 0.04 0.04 0.05 0.06 0.05 0.06 0.05 0.03 0.04
0.01 0.03 0.03 0.02 0.02 0.01 0.01 0.01 0.00 0.01 0.01 0.00 0.01 0.01 0.01 0.00 0.00 0.01 0.01 0.00 0.00 0.01 0.01 0.01 0.02 0.02 0.03 0.03 0.04 0.04 0.03 0.04 0.05 0.06 0.04 0.03 0.03 0.03 0.04 0.08 0.07 0.03 0.03
0.01 0.02 0.02 0.01 0.01 0.01 0.01 0.00 0.00 0.01 0.01 0.01 0.00 0.01 0.01 0.01 0.00 0.00 0.00 0.00 0.00 0.00 0.01 0.01 0.01 0.01 0.01 0.03 0.05 0.04 0.04 0.03 0.03 0.03 0.04 0.03 0.03 0.03 0.04 0.07 0.06 0.04 0.03
0.01 0.01 0.01 0.01 0.01 0.00 0.00 0.00 0.00 0.00 0.00 0.00 0.01 0.01 0.01 0.01 0.01 0.01 0.00 0.00 0.00 0.00 0.00 0.00 0.00 0.00 0.01 0.01 0.03 0.02 0.03 0.03 0.03 0.02 0.03 0.03 0.04 0.04 0.03 0.05 0.04 0.04 0.03
MSLP
1015.44 1015.16 1014.87 1014.62 1014.42 1014.26 1014.14 1014.03 1013.90 1013.77 1013.63 1013.53 1013.48 1013.50 1013.61 1013.77 1013.97 1014.16 1014.30 1014.40 1014.43 1014.43 1014.41 1014.41 1014.45 1014.53 1014.64 1014.77 1014.88 1014.95 1014.99 1014.99 1014.98 1014.96 1014.96 1014.99 1015.04 1015.10 1015.15 1015.17 1015.16 1015.10 1015.01
1015.53 1015.25 1014.97 1014.73 1014.56 1014.45 1014.36 1014.28 1014.17 1014.04 1013.91 1013.79 1013.73 1013.75 1013.85 1014.01 1014.21 1014.41 1014.56 1014.65 1014.68 1014.67 1014.64 1014.63 1014.66 1014.73 1014.83 1014.94 1015.05 1015.12 1015.15 1015.14 1015.11 1015.09 1015.09 1015.11 1015.16 1015.22 1015.27 1015.29 1015.27 1015.20 1015.10
1015.44 1015.16 1014.89 1014.69 1014.57 1014.52 1014.50 1014.47 1014.41 1014.31 1014.19 1014.08 1014.01 1014.01 1014.09 1014.24 1014.42 1014.61 1014.75 1014.84 1014.86 1014.85 1014.82 1014.80 1014.82 1014.89 1014.99 1015.10 1015.19 1015.25 1015.28 1015.26 1015.23 1015.19 1015.18 1015.20 1015.25 1015.30 1015.35 1015.36 1015.34 1015.26 1015.16
1015.23 1014.95 1014.71 1014.56 1014.51 1014.54 1014.60 1014.64 1014.64 1014.58 1014.48 1014.37 1014.30 1014.28 1014.34 1014.46 1014.62 1014.78 1014.91 1014.99 1015.01 1015.00 1014.98 1014.97 1015.00 1015.07 1015.17 1015.27 1015.36 1015.41 1015.42 1015.40 1015.35 1015.31 1015.29 1015.29 1015.33 1015.37 1015.41 1015.42 1015.40 1015.33 1015.23
1015.00 1014.72 1014.51 1014.42 1014.45 1014.56 1014.70 1014.82 1014.87 1014.85 1014.77 1014.67 1014.58 1014.55 1014.58 1014.68 1014.82 1014.96 1015.08 1015.16 1015.18 1015.18 1015.17 1015.18 1015.22 1015.30 1015.40 1015.50 1015.59 1015.63 1015.63 1015.59 1015.53 1015.47 1015.43 1015.43 1015.45 1015.48 1015.51 1015.52 1015.50 1015.45 1015.37
1014.85 1014.57 1014.40 1014.37 1014.46 1014.63 1014.84 1015.00 1015.10 1015.11 1015.04 1014.94 1014.84 1014.80 1014.82 1014.90 1015.03 1015.17 1015.29 1015.37 1015.41 1015.43 1015.44 1015.47 1015.52 1015.61 1015.71 1015.81 1015.88 1015.91 1015.89 1015.84 1015.77 1015.70 1015.65 1015.63 1015.63 1015.65 1015.68 1015.69 1015.68 1015.64 1015.58
1014.83 1014.57 1014.43 1014.44 1014.57 1014.79 1015.02 1015.21 1015.32 1015.33 1015.26 1015.16 1015.06 1015.02 1015.04 1015.13 1015.26 1015.40 1015.53 1015.63 1015.70 1015.74 1015.77 1015.82 1015.89 1015.98 1016.08 1016.17 1016.22 1016.24 1016.21 1016.14 1016.06 1015.99 1015.93 1015.90 1015.90 1015.91 1015.93 1015.94 1015.93 1015.90 1015.86
1014.98 1014.73 1014.61 1014.65 1014.80 1015.02 1015.25 1015.42 1015.51 1015.50 1015.42 1015.31 1015.22 1015.19 1015.23 1015.34 1015.49 1015.66 1015.82 1015.94 1016.03 1016.09 1016.14 1016.20 1016.28 1016.37 1016.46 1016.54 1016.58 1016.58 1016.54 1016.47 1016.40 1016.32 1016.27 1016.25 1016.24 1016.25 1016.26 1016.27 1016.26 1016.23 1016.19
1015.25 1015.02 1014.92 1014.96 1015.10 1015.30 1015.48 1015.61 1015.65 1015.61 1015.51 1015.40 1015.33 1015.32 1015.39 1015.53 1015.72 1015.92 1016.10 1016.25 1016.35 1016.43 1016.50 1016.57 1016.65 1016.73 1016.81 1016.87 1016.90 1016.90 1016.86 1016.80 1016.74 1016.68 1016.65 1016.64 1016.65 1016.66 1016.67 1016.66 1016.64 1016.60 1016.54
1015.56 1015.36 1015.27 1015.30 1015.42 1015.56 1015.69 1015.75 1015.74 1015.66 1015.54 1015.44 1015.38 1015.41 1015.52 1015.70 1015.92 1016.15 1016.36 1016.52 1016.64 1016.73 1016.80 1016.87 1016.95 1017.03 1017.10 1017.15 1017.18 1017.18 1017.15 1017.11 1017.07 1017.05 1017.05 1017.07 1017.09 1017.11 1017.12 1017.10 1017.05 1016.98 1016.90
1015.85 1015.66 1015.59 1015.61 1015.69 1015.78 1015.85 1015.85 1015.78 1015.67 1015.54 1015.45 1015.42 1015.48 1015.63 1015.85 1016.10 1016.35 1016.57 1016.74 1016.87 1016.96 1017.03 1017.10 1017.18 1017.25 1017.32 1017.38 1017.41 1017.42 1017.42 1017.41 1017.41 1017.43 1017.47 1017.52 1017.57 1017.60 1017.61 1017.57 1017.49 1017.39 1017.26
1016.03 1015.88 1015.82 1015.83 1015.88 1015.93 1015.94 1015.90 1015.80 1015.67 1015.54 1015.47 1015.47 1015.57 1015.75 1015.99 1016.26 1016.52 1016.73 1016.90 1017.02 1017.12 1017.19 1017.27 1017.35 1017.44 1017.53 1017.60 1017.65 1017.69 1017.71 1017.74 1017.78 1017.83 1017.91 1018.00 1018.07 1018.12 1018.12 1018.07 1017.96 1017.82 1017.65
1016.09 1015.97 1015.93 1015.94 1015.98 1016.01 1016.00 1015.93 1015.82 1015.69 1015.59 1015.54 1015.58 1015.70 1015.90 1016.15 1016.41 1016.66 1016.86 1017.02 1017.14 1017.23 1017.32 1017.42 1017.53 1017.65 1017.77 1017.87 1017.96 1018.02 1018.08 1018.14 1018.21 1018.30 1018.41 1018.52 1018.61 1018.66 1018.66 1018.59 1018.46 1018.28 1018.08
1016.05 1015.96 1015.94 1015.97 1016.02 1016.05 1016.03 1015.97 1015.88 1015.78 1015.71 1015.69 1015.75 1015.89 1016.09 1016.33 1016.57 1016.79 1016.98 1017.12 1017.24 1017.35 1017.47 1017.61 1017.76 1017.93 1018.09 1018.25 1018.37 1018.48 1018.56 1018.65 1018.74 1018.85 1018.97 1019.09 1019.19 1019.24 1019.23 1019.15 1019.00 1018.80 1018.56
1015.96 1015.90 1015.91 1015.96 1016.03 1016.08 1016.09 1016.07 1016.02 1015.96 1015.92 1015.93 1016.01 1016.15 1016.33 1016.54 1016.75 1016.94 1017.10 1017.24 1017.37 1017.51 1017.67 1017.86 1018.08 1018.31 1018.54 1018.74 1018.92 1019.06 1019.17 1019.27 1019.37 1019.48 1019.60 1019.70 1019.79 1019.83 1019.82 1019.72 1019.57 1019.35 1019.11
1015.89 1015.86 1015.89 1015.97 1016.07 1016.16 1016.22 1016.24 1016.24 1016.22 1016.22 1016.25 1016.33 1016.45 1016.60 1016.77 1016.94 1017.10 1017.24 1017.38 1017.53 1017.71 1017.93 1018.19 1018.48 1018.78 1019.07 1019.34 1019.56 1019.73 1019.86 1019.97 1020.06 1020.16 1020.25 1020.34 1020.41 1020.44 1020.41 1020.32 1020.16 1019.95 1019.70
1015.91 1015.89 1015.95 1016.05 1016.18 1016.31 1016.42 1016.50 1016.55 1016.57 1016.60 1016.64 1016.70 1016.79 1016.90 1017.02 1017.15 1017.27 1017.40 1017.55 1017.73 1017.96 1018.23 1018.56 1018.92 1019.29 1019.64 1019.95 1020.21 1020.41 1020.56 1020.67 1020.76 1020.83 1020.91 1020.97 1021.02 1021.03 1020.99 1020.90 1020.75 1020.55 1020.31
1016.06 1016.05 1016.11 1016.23 1016.39 1016.55 1016.70 1016.83 1016.92 1016.98 1017.02 1017.05 1017.09 1017.14 1017.20 1017.27 1017.36 1017.46 1017.58 1017.75 1017.96 1018.22 1018.55 1018.93 1019.34 1019.76 1020.15 1020.50 1020.79 1021.01 1021.18 1021.29 1021.37 1021.44 1021.50 1021.55 1021.58 1021.59 1021.55 1021.47 1021.33 1021.14 1020.92
1016.33 1016.32 1016.38 1016.50 1016.67 1016.85 1017.04 1017.20 1017.32 1017.40 1017.45 1017.47 1017.48 1017.48 1017.50 1017.53 1017.58 1017.66 1017.79 1017.96 1018.20 1018.49 1018.85 1019.25 1019.68 1020.12 1020.53 1020.90 1021.20 1021.44 1021.62 1021.75 1021.84 1021.92 1021.98 1022.03 1022.07 1022.09 1022.06 1022.00 1021.88 1021.72 1021.51
1016.68 1016.66 1016.71 1016.82 1016.99 1017.19 1017.39 1017.58 1017.73 1017.83 1017.88 1017.88 1017.86 1017.83 1017.81 1017.80 1017.83 1017.90 1018.02 1018.20 1018.45 1018.75 1019.10 1019.50 1019.91 1020.33 1020.73 1021.09 1021.40 1021.65 1021.86 1022.01 1022.14 1022.24 1022.33 1022.41 1022.48 1022.52 1022.53 1022.49 1022.41 1022.27 1022.08
1017.05 1017.02 1017.05 1017.14 1017.30 1017.50 1017.72 1017.93 1018.10 1018.22 1018.28 1018.28 1018.24 1018.19 1018.14 1018.11 1018.12 1018.18 1018.30 1018.48 1018.71 1018.99 1019.32 1019.67 1020.04 1020.41 1020.77 1021.10 1021.40 1021.66 1021.88 1022.08 1022.25 1022.41 1022.56 1022.69 1022.80 1022.89 1022.94 1022.95 1022.90 1022.79 1022.63
1017.36 1017.32 1017.33 1017.41 1017.56 1017.76 1018.00 1018.23 1018.43 1018.57 1018.65 1018.66 1018.62 1018.56 1018.50 1018.47 1018.47 1018.53 1018.64 1018.81 1019.01 1019.26 1019.52 1019.81 1020.10 1020.39 1020.69 1020.97 1021.25 1021.51 1021.76 1022.00 1022.23 1022.46 1022.67 1022.87 1023.05 1023.19 1023.30 1023.36 1023.36 1023.29 1023.16
1017.56 1017.52 1017.51 1017.58 1017.72 1017.94 1018.20 1018.46 1018.70 1018.88 1018.98 1019.02 1019.00 1018.95 1018.91 1018.88 1018.89 1018.94 1019.05 1019.20 1019.37 1019.56 1019.76 1019.96 1020.16 1020.37 1020.58 1020.81 1021.05 1021.31 1021.57 1021.85 1022.14 1022.42 1022.70 1022.97 1023.22 1023.43 1023.60 1023.72 1023.77 1023.75 1023.66
1017.61 1017.58 1017.57 1017.64 1017.79 1018.03 1018.31 1018.62 1018.90 1019.14 1019.29 1019.37 1019.39 1019.37 1019.34 1019.33 1019.35 1019.41 1019.52 1019.64 1019.78 1019.92 1020.05 1020.17 1020.29 1020.41 1020.55 1020.72 1020.92 1021.16 1021.43 1021.72 1022.04 1022.37 1022.70 1023.02 1023.33 1023.60 1023.82 1024.00 1024.11 1024.15 1024.11
1017.52 1017.51 1017.52 1017.60 1017.78 1018.04 1018.36 1018.72 1019.06 1019.35 1019.56 1019.69 1019.75 1019.77 1019.77 1019.78 1019.83 1019.90 1020.00 1020.12 1020.24 1020.34 1020.43 1020.49 1020.54 1020.59 1020.67 1020.77 1020.93 1021.14 1021.39 1021.68 1022.01 1022.35 1022.70 1023.05 1023.38 1023.68 1023.96 1024.18 1024.35 1024.45 1024.48
1017.33 1017.36 1017.40 1017.50 1017.70 1018.00 1018.37 1018.77 1019.17 1019.51 1019.78 1019.97 1020.07 1020.13 1020.17 1020.21 1020.27 1020.36 1020.48 1020.60 1020.72 1020.81 1020.87 1020.90 1020.92 1020.93 1020.96 1021.02 1021.13 1021.29 1021.51 1021.77 1022.07 1022.38 1022.72 1023.05 1023.38 1023.70 1024.00 1024.26 1024.48 1024.63 1024.72
Thickness
5766 5765 5763 5763 5763 5762 5762 5762 5762 5762 5762 5761 5761 5760 5760 5760 5760 5760 5759 5759 5759 5759 5759 5760 5760 5761 5761 5761 5762 5762 5763 5764 5765 5765 5766 5766 5767 5768 5769 5770 5771 5773 5771
5766 5764 5761 5761 5761 5760 5760 5760 5759 5759 5759 5759 5758 5758 5757 5757 5757 5757 5757 5757 5756 5756 5757 5757 5757 5758 5758 5758 5759 5759 5760 5761 5761 5762 5763 5764 5765 5766 5766 5767 5768 5770 5769
5765 5763 5761 5759 5758 5758 5758 5757 5757 5757 5756 5756 5756 5755 5755 5755 5754 5754 5754 5754 5754 5754 5754 5754 5754 5755 5755 5755 5756 5756 5757 5757 5758 5760 5762 5765 5764 5763 5764 5765 5765 5766 5766
5762 5761 5759 5757 5756 5756 5755 5755 5755 5754 5754 5753 5753 5753 5752 5752 5752 5752 5752 5752 5752 5751 5751 5751 5751 5752 5752 5752 5753 5753 5754 5754 5756 5758 5762 5763 5763 5761 5761 5762 5763 5763 5763
5760 5758 5756 5754 5754 5753 5753 5752 5752 5752 5751 5751 5751 5750 5750 5749 5749 5749 5749 5749 5749 5749 5749 5748 5749 5749 5749 5749 5749 5750 5750 5751 5753 5757 5759 5759 5759 5758 5758 5759 5760 5761 5761
5757 5755 5753 5751 5751 5750 5750 5750 5750 5749 5749 5748 5748 5747 5747 5746 5746 5746 5746 5746 5746 5746 5746 5746 5746 5746 5746 5746 5746 5747 5747 5749 5753 5755 5755 5756 5756 5755 5756 5756 5757 5758 5758
5754 5753 5751 5748 5748 5748 5747 5747 5747 5746 5746 5745 5745 5744 5743 5743 5742 5742 5742 5742 5742 5742 5742 5742 5742 5743 5743 5743 5744 5744 5745 5747 5750 5751 5753 5753 5752 5752 5753 5753 5754 5754 5754
5751 5750 5748 5746 5745 5745 5744 5744 5744 5743 5743 5743 5742 5741 5740 5740 5739 5739 5739 5739 5739 5739 5739 5739 5739 5740 5740 5740 5741 5741 5742 5744 5748 5750 5749 5749 5748 5748 5749 5750 5750 5750 5750
5748 5748 5747 5746 5745 5743 5742 5741 5741 5740 5739 5739 5738 5738 5737 5737 5736 5736 5735 5735 5736 5736 5736 5736 5736 5737 5737 5737 5738 5738 5739 5741 5745 5746 5747 5745 5744 5744 5745 5745 5746 5746 5746
5745 5745 5744 5744 5744 5743 5742 5738 5737 5736 5736 5736 5735 5734 5734 5734 5734 5733 5733 5732 5733 5733 5733 5733 5733 5733 5734 5734 5734 5735 5736 5738 5741 5742 5742 5740 5739 5740 5740 5741 5742 5742 5742
5740 5741 5741 5741 5741 5740 5739 5736 5735 5734 5733 5733 5733 5731 5732 5734 5734 5732 5729 5729 5729 5729 5729 5730 5730 5730 5731 5731 5731 5732 5734 5736 5737 5737 5736 5735 5735 5736 5736 5737 5737 5738 5738
5735 5737 5738 5738 5737 5737 5735 5734 5733 5733 5731 5732 5732 5731 5731 5731 5730 5729 5726 5726 5726 5726 5726 5726 5727 5727 5729 5730 5729 5730 5732 5733 5733 5733 5731 5730 5731 5732 5732 5733 5733 5733 5734
5733 5733 5734 5735 5734 5733 5732 5731 5730 5729 5728 5728 5729 5728 5728 5728 5727 5726 5726 5725 5724 5724 5725 5724 5726 5726 5727 5726 5727 5727 5727 5729 5729 5728 5726 5725 5726 5727 5728 5728 5729 5729 5729
5730 5729 5730 5731 5731 5730 5729 5728 5727 5726 5726 5726 5725 5726 5725 5725 5725 5724 5724 5722 5722 5722 5721 5723 5722 5723 5724 5724 5724 5724 5724 5724 5723 5723 5721 5721 5722 5723 5724 5724 5724 5725 5726
5726 5726 5727 5728 5728 5727 5725 5724 5725 5723 5724 5723 5721 5723 5723 5722 5722 5722 5721 5718 5719 5718 5718 5719 5720 5719 5720 5720 5720 5720 5720 5720 5719 5719 5716 5716 5717 5718 5719 5720 5720 5720 5721
5724 5724 5724 5723 5723 5723 5723 5722 5721 5720 5719 5719 5719 5720 5720 5719 5719 5718 5718 5716 5715 5715 5715 5715 5715 5715 5715 5715 5715 5715 5715 5715 5715 5715 5714 5713 5712 5713 5714 5715 5716 5716 5717
5723 5722 5720 5719 5719 5719 5719 5718 5717 5716 5717 5716 5716 5717 5717 5716 5716 5716 5715 5714 5713 5712 5712 5711 5711 5711 5711 5711 5711 5711 5711 5711 5712 5712 5711 5711 5710 5709 5709 5710 5711 5713 5713
5721 5720 5717 5716 5716 5715 5714 5713 5713 5713 5713 5712 5712 5713 5714 5714 5713 5712 5711 5711 5710 5709 5709 5708 5708 5708 5707 5707 5707 5708 5708 5706 5708 5708 5708 5708 5707 5707 5705 5705 5707 5709 5710
5719 5717 5714 5713 5712 5711 5710 5709 5709 5709 5708 5709 5709 5709 5710 5711 5710 5709 5707 5707 5707 5707 5706 5706 5705 5705 5704 5703 5703 5702 5703 5703 5703 5703 5704 5704 5703 5702 5702 5701 5702 5704 5704
5718 5716 5712 5710 5710 5708 5707 5708 5706 5706 5706 5706 5705 5705 5706 5707 5706 5706 5705 5704 5704 5704 5702 5702 5701 5701 5701 5700 5701 5699 5699 5698 5699 5699 5699 5699 5699 5698 5698 5698 5698 5697 5698
5715 5713 5711 5708 5707 5705 5704 5704 5703 5702 5703 5703 5702 5702 5702 5703 5703 5703 5703 5702 5701 5700 5699 5700 5699 5698 5698 5699 5697 5695 5695 5696 5695 5694 5694 5695 5694 5693 5694 5694 5694 5694 5694
5713 5711 5709 5707 5705 5704 5702 5703 5702 5701 5701 5701 5699 5699 5700 5700 5700 5701 5701 5699 5698 5696 5696 5696 5695 5695 5695 5696 5696 5693 5690 5690 5689 5691 5690 5690 5690 5689 5689 5690 5690 5690 5690
5711 5709 5707 5706 5704 5703 5702 5701 5699 5699 5699 5698 5697 5697 5697 5697 5697 5697 5697 5697 5695 5696 5694 5693 5692 5692 5692 5693 5695 5694 5690 5687 5686 5687 5687 5687 5685 5685 5685 5685 5685 5686 5686
5712 5711 5709 5706 5705 5703 5701 5700 5699 5697 5696 5696 5697 5696 5696 5695 5694 5694 5695 5695 5694 5694 5693 5693 5692 5692 5690 5690 5691 5691 5693 5691 5687 5683 5684 5684 5682 5681 5681 5681 5680 5680 5680
5713 5710 5709 5706 5704 5702 5701 5699 5698 5697 5697 5697 5696 5695 5695 5694 5692 5692 5692 5692 5692 5692 5691 5690 5690 5690 5690 5690 5690 5690 5688 5687 5689 5685 5680 5680 5679 5678 5676 5676 5676 5675 5674
5711 5708 5707 5704 5702 5700 5699 5699 5698 5697 5695 5694 5693 5693 5693 5692 5691 5691 5690 5690 5690 5690 5690 5689 5688 5688 5688 5687 5688 5688 5687 5686 5684 5684 5680 5677 5676 5675 5673 5672 5672 5671 5670